Location: Kott?ru
(16.6209°N, 80.6208°E)
Time: 13:24:48
(UTC+00:00)

USA 234 - Pass Details

Date: 18 September 2020
Orbit: 1102 x 1106 km, 123.0° (Epoch: 16 October)

Event Time Altitude Azimuth Distance (km) Brightness Sun altitude
Rises 13:19:32 0° 34° (NNE) 3,914 5.9 -11.0°
Reaches altitude 10° 13:22:01 10° 32° (NNE) 2,957 5.3 -11.6°
Maximum altitude 13:28:31 73° 309° (NW) 1,149 3.5 -13.2°
Drops below altitude 10° 13:35:01 10° 225° (SW) 2,956 6.1 -14.7°
Sets 13:37:30 0° 223° (SW) 3,913 6.7 -15.3°
